Location: Cueva de Ratón
(10.1013°N, 67.6606°W)
Time: 16:16:23
(UTC+00:00)

Cosmos 44 - Pass Details

Date: 02 December 2023
Orbit: 572 x 785 km, 65.1° (Epoch: 26 February)

Event Time Altitude Azimuth Distance (km) Brightness Sun altitude
Rises 22:58:40 0° 350° (N) 3,179 6.6 -12.6°
Reaches altitude 10° 23:01:16 10° 359° (N) 2,226 5.7 -13.2°
Maximum altitude 23:05:57 37° 66° (ENE) 1,081 3.8 -14.3°
Drops below altitude 10° 23:10:22 10° 133° (SE) 2,099 5.5 -15.3°
Sets 23:12:45 0° 142° (SE) 2,975 6.4 -15.9°
